Tracking 28920 objects as of 26-May-2024
HD Live streaming from Space Station
objects crossing your sky now

STARLINK-31364

Track STARLINK-31364 now!
10-day predictions


NORAD ID: 59463
Int'l Code: 2024-068J
Perigee: 450.2 km
Apogee: 452.0 km
Inclination: 43.0 °
Period: 93.5 minutes
Semi major axis: 6822 km
RCS: Unknown
Launch date: April 10, 2024
Source: United States (US)
Launch site: AIR FORCE EASTERN TEST RANGE (AFETR)
Your satellite tracking list
Your tracking list is empty




NASA's NSSDC Master Catalog

Two Line Element Set (TLE):
1 59463U 24068J   24147.37703473  .00028500  00000-0  68628-3 0  9997
2 59463  42.9974 148.4146 0001362 241.3305 118.7414 15.40730073  8411
Source of the keplerian elements: AFSPC